Hovedside
METAR-TAF:

METAR-TAF

Lufthavner :

Enontekiö lufthavn

Enontekis, Finland

breddegrad: 68-21-52N, lengdegrad: 023-25-39E, høyde over havet: 308 m

Gjeldene værobservasjon

Denne rapporten ble laget for 26 minutter siden, klokken 16:20 UTC
Vind 5 kt fra Sør, skiftende mellom Sør-sørøst og Sørvest
Temperatur 12°C
Luftfuktighet 100%
Trykk 1010 hPa
Sikt 10 km eller mer
Overskyet i en høyde av 700 ft
mye regn

METAR: EFET 251620Z AUTO 19005KT 150V220 9999 +RA OVC007 12/12 Q1010

Tid: 19:46 (16:46 UTC)


TAF: fraværende

Værobservasjoner og værvarsel for over 4000 flyplasser (METAR- og TAF-rapporter).

Tilgjengelige stasjoner er representert av de røde og gule prikkene på kartet.

Hold musepekeren over prikken for å se navnet på stasjonen.

Klikk så for å se værobservasjoner og -varsler.

For å forandre kartet kan du klikke på den grønne knappen med svart kryss for å zoome inn, på den grønne knappen med strek for å zoome ut, eller på de grønne pilene for å se tilstøtende kart.


METAR-TAF: